Погода в Камау

Вьетнам     9°10′29″N   105°08′58″E
темп.,
°C
ветер,
м/с
пор.,
м/с
влажн.,
%
обл.,
%
осадки,
мм/ч
давл.,
гПа
погр.,
м
11 мая, вт
вт1101:00+28ююв24765 0.0 1008321
04:00+28ююв117773 0.0 100730
07:00+29юв2371100 0.0 1008656
10:00+35вюв4445100 0.0 10091833
13:00+37вюв543782 0.0 10062312
16:00+35ююз124375 0.0 10041593
19:00+31ююв336034 0.1 1006690
22:00+29ююв3569100 0.0 1008556
12 мая, ср
ср1201:00+29ю247299 0.0 1007386
04:00+28ююв1376100 0.0 1006141
07:00+29ююв136983 0.0 1008531
10:00+35юв12425 0.0 10081661
13:00+36вюв324099 0.1 10052290
16:00+31з456199 0.2 1005540
19:00+30зюз23653 0.2 1006381
22:00+29ююз23695 0.0 1007280
13 мая, чт
чт1301:00+28ю237224 0.0 1006173
04:00+27ююз127680 0.0 100668
07:00+29ю126892 0.0 1007308
10:00+35вюв124587 0.0 10071664
13:00+34в5346100 0.1 10051541
16:00+32зюз3354100 0.1 1003773
19:00+31ююв2459100 0.1 1005298
22:00+29ю24688 0.0 1007278
14 мая, пт
пт1401:00+28ю12736 0.0 1006105
04:00+27ю117699 0.0 100530
07:00+29ююв137088 0.0 1006478
10:00+35в3445100 0.0 10071757
13:00+37юв653779 0.0 10042495
16:00+33ююз135085 0.1 10031210
19:00+31юв356216 0.3 1005662
22:00+30ююв347144 0.0 1006665
15 мая, сб
сб1501:00+28ююв1277100 0.6 100586
04:00+27ююв128358 3.4 100593
07:00+29вюв137388 3.6 1006417
10:00+34в344996 0.0 10061900
13:00+34вюв444883 0.3 10051656
16:00+34вюв545081 0.0 10031357
19:00+30юв35668 0.2 1005510
22:00+29юв25735 0.0 1006355